GW0273 Weather Reports


time (UTC)temp
F
wind
direction
speed
knots
gust
knots
rain 1hr
in
rain 24hr
in
rain mn
in
humidity
%
barometer
mb
20260505091536 46 189 5.2 17.4 0.00 0.71 0.00 78 1008.3
20260505090030 46 184 7.0 15.6 0.00 0.71 0.00 77 1008.0
20260505084535 46 220 4.3 13.9 0.00 0.73 0.00 77 1007.9
20260505083044 47 274 5.2 16.5 0.00 0.73 0.00 77 1007.6
20260505081534 46 261 6.1 18.2 0.00 0.73 0.00 78 1007.3
20260505080044 46 271 9.6 20.9 0.00 0.73 0.00 78 1007.1
20260505074538 46 202 9.6 29.5 0.00 0.74 0.00 78 1006.6
20260505073043 46 250 7.0 21.7 0.00 0.74 0.00 77 1006.4
20260505071540 46 270 8.7 20.0 0.00 0.74 0.00 78 1006.1
20260505070036 46 276 6.1 15.6 0.00 0.74 0.00 77 1006.0
20260505064535 46 264 7.0 21.7 0.00 0.74 0.00 76 1005.4
20260505063045 46 216 6.1 20.0 0.00 0.74 0.00 76 1005.4
20260505061535 47 237 8.7 18.2 0.00 0.74 0.00 75 1005.2
20260505060035 47 236 9.6 20.0 0.00 0.74 0.00 75 1005.0
20260505054543 48 182 9.6 24.3 0.00 0.75 0.00 75 1005.0
20260505053043 48 214 11.3 20.9 0.00 0.75 0.00 75 1005.0
20260505051541 48 218 9.6 20.0 0.00 0.75 0.00 75 1004.7
20260505041545 49 215 8.7 23.5 0.00 0.76 0.00 75 1003.9
20260505040042 49 200 7.0 23.5 0.00 0.76 0.00 75 1003.5
20260505034536 50 179 8.7 21.7 0.00 0.76 0.00 74 1003.4
20260505033034 50 261 9.6 23.5 0.00 0.76 0.00 73 1003.2
20260505031537 50 228 9.6 22.6 0.00 0.76 0.00 72 1003.0
20260505030047 51 222 6.1 17.4 0.00 0.76 0.00 71 1002.8
20260505024531 51 213 7.0 23.5 0.00 0.82 0.76 69 1002.6
20260505023035 51 246 5.2 15.6 0.00 0.82 0.76 67 1002.6
20260505021533 51 250 7.8 18.2 0.00 0.82 0.76 64 1002.3
20260505020047 51 189 4.3 13.9 0.00 0.82 0.76 62 1002.2
20260505014532 51 178 0.9 14.8 0.00 1.07 0.76 62 1001.8
20260505013032 51 262 7.0 17.4 0.00 1.07 0.76 60 1001.6
20260505011536 51 182 8.7 21.7 0.00 1.07 0.76 60 1001.4
20260505010056 51 242 12.2 21.7 0.00 1.07 0.76 57 1001.2
20260505004535 50 189 4.3 27.8 0.00 1.24 0.76 59 1001.0
20260505003045 51 188 7.8 18.2 0.00 1.24 0.76 57 1001.3
20260505001535 51 214 7.8 23.5 0.00 1.24 0.76 52 1001.0
20260505000037 51 188 5.2 17.4 0.00 1.24 0.76 52 1000.6
20260504234536 51 204 7.0 14.8 0.00 1.37 0.76 54 1000.2
20260504233041 51 42 10.4 20.9 0.00 1.37 0.76 55 1000.1
20260504231535 51 240 7.8 20.0 0.00 1.37 0.76 55 999.5
20260504230039 50 242 5.2 14.8 0.00 1.37 0.76 57 999.3
20260504224535 50 233 7.0 15.6 0.00 1.62 0.76 58 999.4
20260504223033 50 185 4.3 14.8 0.00 1.62 0.76 59 999.2
20260504221535 50 274 4.3 13.9 0.00 1.62 0.76 59 999.5
20260504220035 50 185 5.2 13.0 0.00 1.62 0.76 59 999.2
20260504214540 50 242 12.2 23.5 0.00 1.70 0.76 58 999.1
20260504213034 50 219 11.3 24.3 0.00 1.70 0.76 59 998.8
20260504211532 50 200 10.4 26.1 0.00 1.70 0.76 60 998.8
20260504210033 50 286 8.7 20.9 0.00 1.70 0.76 60 998.8
20260504204543 50 200 10.4 21.7 0.00 1.79 0.76 62 998.5
20260504203037 49 188 10.4 21.7 0.00 1.79 0.76 63 998.1
20260504201533 49 248 13.0 27.8 0.00 1.79 0.76 64 998.0
20260504200043 48 201 11.3 29.5 0.00 1.79 0.76 67 997.5
20260504194535 48 199 13.0 33.0 0.00 1.79 0.76 69 997.1
20260504193032 48 205 9.6 24.3 0.00 1.79 0.76 72 996.8
20260504191538 47 321 9.6 25.2 0.00 1.79 0.76 75 996.3
20260504190036 46 255 11.3 27.8 0.00 1.79 0.76 75 996.0
20260504184538 47 182 8.7 28.7 0.00 1.79 0.76 75 995.7
20260504183036 46 195 12.2 31.3 0.00 1.79 0.76 77 994.7
20260504181534 45 283 12.2 28.7 0.00 1.79 0.76 79 994.7
20260504180033 45 295 10.4 34.8 0.00 1.79 0.76 82 994.8
20260504174530 44 247 14.8 34.8 0.00 1.79 0.76 83 994.4
20260504173035 43 219 13.9 33.9 0.00 1.79 0.76 85 994.0
20260504171535 43 264 14.8 37.4 0.04 1.79 0.76 87 994.4